Year,Month,Day,Hour,Minute,Value (Times are PST for temperature in C)
2011,08,22,00,00,20.80
2011,08,22,00,01,20.80
2011,08,22,00,02,20.80
2011,08,22,00,03,20.80
2011,08,22,00,04,20.80
2011,08,22,00,05,20.80
2011,08,22,00,06,20.80
2011,08,22,00,07,20.80
2011,08,22,00,08,20.80
2011,08,22,00,09,20.80
2011,08,22,00,10,20.80
2011,08,22,00,11,20.80
2011,08,22,00,12,20.80
2011,08,22,00,13,20.80
2011,08,22,00,14,20.80
2011,08,22,00,15,20.80
2011,08,22,00,16,20.80
2011,08,22,00,17,20.80
2011,08,22,00,18,20.80
2011,08,22,00,19,20.80
2011,08,22,00,20,20.70
2011,08,22,00,21,20.70
2011,08,22,00,22,20.70
2011,08,22,00,23,20.70
2011,08,22,00,24,20.70
2011,08,22,00,25,20.70
2011,08,22,00,26,20.70
2011,08,22,00,27,20.70
2011,08,22,00,28,20.80
2011,08,22,00,29,20.80
2011,08,22,00,30,20.80
2011,08,22,00,31,20.80
2011,08,22,00,32,20.80
2011,08,22,00,33,20.80
2011,08,22,00,34,20.80
2011,08,22,00,35,20.80
2011,08,22,00,36,20.80
2011,08,22,00,37,20.90
2011,08,22,00,38,20.90
2011,08,22,00,39,20.90
2011,08,22,00,40,20.90
2011,08,22,00,41,21.00
2011,08,22,00,42,21.00
2011,08,22,00,43,21.00
2011,08,22,00,44,21.10
2011,08,22,00,45,21.10
2011,08,22,00,46,21.20
2011,08,22,00,47,21.20
2011,08,22,00,48,21.20
2011,08,22,00,49,21.30
2011,08,22,00,50,21.30
2011,08,22,00,51,21.30
2011,08,22,00,52,21.40
2011,08,22,00,53,21.40
2011,08,22,00,54,21.50
2011,08,22,00,55,21.60
2011,08,22,00,56,21.60
2011,08,22,00,57,21.70
2011,08,22,00,58,21.80
2011,08,22,00,59,22.00
2011,08,22,01,00,22.00
2011,08,22,01,01,22.10
2011,08,22,01,02,22.10
2011,08,22,01,03,22.20
2011,08,22,01,04,22.20
2011,08,22,01,05,22.20
2011,08,22,01,06,22.30
2011,08,22,01,07,22.30
2011,08,22,01,08,22.30
2011,08,22,01,09,22.30
2011,08,22,01,10,22.20
2011,08,22,01,11,22.20
2011,08,22,01,12,22.20
2011,08,22,01,13,22.20
2011,08,22,01,14,22.20
2011,08,22,01,15,22.20
2011,08,22,01,16,22.20
2011,08,22,01,17,22.20
2011,08,22,01,18,22.10
2011,08,22,01,19,22.10
2011,08,22,01,20,22.10
2011,08,22,01,21,22.10
2011,08,22,01,22,22.10
2011,08,22,01,23,22.10
2011,08,22,01,24,22.10
2011,08,22,01,25,22.10
2011,08,22,01,26,22.00
2011,08,22,01,27,22.00
2011,08,22,01,28,22.00
2011,08,22,01,29,22.00
2011,08,22,01,30,22.00
2011,08,22,01,31,22.00
2011,08,22,01,32,22.00
2011,08,22,01,33,21.90
2011,08,22,01,34,21.90
2011,08,22,01,35,21.90
2011,08,22,01,36,21.90
2011,08,22,01,37,21.80
2011,08,22,01,38,21.80
2011,08,22,01,39,21.80
2011,08,22,01,40,21.70
2011,08,22,01,41,21.70
2011,08,22,01,42,21.70
2011,08,22,01,43,21.60
2011,08,22,01,44,21.60
2011,08,22,01,45,21.60
2011,08,22,01,46,21.50
2011,08,22,01,47,21.50
2011,08,22,01,48,21.40
2011,08,22,01,49,21.40
2011,08,22,01,50,21.40
2011,08,22,01,51,21.30
2011,08,22,01,52,21.30
2011,08,22,01,53,21.30
2011,08,22,01,54,21.30
2011,08,22,01,55,21.20
2011,08,22,01,56,21.20
2011,08,22,01,57,21.20
2011,08,22,01,58,21.10
2011,08,22,01,59,21.10
2011,08,22,02,00,21.10
2011,08,22,02,01,21.00
2011,08,22,02,02,21.00
2011,08,22,02,03,21.00
2011,08,22,02,04,20.90
2011,08,22,02,05,20.90
2011,08,22,02,06,20.90
2011,08,22,02,07,20.90
2011,08,22,02,08,20.90
2011,08,22,02,09,20.90
2011,08,22,02,10,20.90
2011,08,22,02,11,20.90
2011,08,22,02,12,20.90
2011,08,22,02,13,21.00
2011,08,22,02,14,21.00
2011,08,22,02,15,21.10
2011,08,22,02,16,21.10
2011,08,22,02,17,21.20
2011,08,22,02,18,21.20
2011,08,22,02,19,21.20
2011,08,22,02,20,21.30
2011,08,22,02,21,21.30
2011,08,22,02,22,21.30
2011,08,22,02,23,21.40
2011,08,22,02,24,21.40
2011,08,22,02,25,21.40
2011,08,22,02,26,21.50
2011,08,22,02,27,21.50
2011,08,22,02,28,21.60
2011,08,22,02,29,21.60
2011,08,22,02,30,21.60
2011,08,22,02,31,21.60
2011,08,22,02,32,21.60
2011,08,22,02,33,21.60
2011,08,22,02,34,21.60
2011,08,22,02,35,21.70
2011,08,22,02,36,21.70
2011,08,22,02,37,21.70
2011,08,22,02,38,21.70
2011,08,22,02,39,21.70
2011,08,22,02,40,21.70
2011,08,22,02,41,21.70
2011,08,22,02,42,21.70
2011,08,22,02,43,21.70
2011,08,22,02,44,21.70
2011,08,22,02,45,21.70
2011,08,22,02,46,21.70
2011,08,22,02,47,21.70
2011,08,22,02,48,21.80
2011,08,22,02,49,21.80
2011,08,22,02,50,21.80
2011,08,22,02,51,21.80
2011,08,22,02,52,21.80
2011,08,22,02,53,21.80
2011,08,22,02,54,21.80
2011,08,22,02,55,21.80
2011,08,22,02,56,21.80
2011,08,22,02,57,21.80
2011,08,22,02,58,21.70
2011,08,22,02,59,21.70
2011,08,22,03,00,21.70
2011,08,22,03,01,21.70
2011,08,22,03,02,21.70
2011,08,22,03,03,21.70
2011,08,22,03,04,21.60
2011,08,22,03,05,21.60
2011,08,22,03,06,21.60
2011,08,22,03,07,21.60
2011,08,22,03,08,21.50
2011,08,22,03,09,21.50
2011,08,22,03,10,21.50
2011,08,22,03,11,21.40
2011,08,22,03,12,21.40
2011,08,22,03,13,21.40
2011,08,22,03,14,21.40
2011,08,22,03,15,21.30
2011,08,22,03,16,21.30
2011,08,22,03,17,21.30
2011,08,22,03,18,21.30
2011,08,22,03,19,21.40
2011,08,22,03,20,21.40
2011,08,22,03,21,21.40
2011,08,22,03,22,21.50
2011,08,22,03,23,21.50
2011,08,22,03,24,21.50
2011,08,22,03,25,21.60
2011,08,22,03,26,21.60
2011,08,22,03,27,21.60
2011,08,22,03,28,21.60
2011,08,22,03,29,21.70
2011,08,22,03,30,21.70
2011,08,22,03,31,21.70
2011,08,22,03,32,21.70
2011,08,22,03,33,21.70
2011,08,22,03,34,21.70
2011,08,22,03,35,21.70
2011,08,22,03,36,21.70
2011,08,22,03,37,21.70
2011,08,22,03,38,21.70
2011,08,22,03,39,21.70
2011,08,22,03,40,21.70
2011,08,22,03,41,21.70
2011,08,22,03,42,21.70
2011,08,22,03,43,21.70
2011,08,22,03,44,21.70
2011,08,22,03,45,21.70
2011,08,22,03,46,21.70
2011,08,22,03,47,21.70
2011,08,22,03,48,21.70
2011,08,22,03,49,21.70
2011,08,22,03,50,21.70
2011,08,22,03,51,21.70
2011,08,22,03,52,21.70
2011,08,22,03,53,21.70
2011,08,22,03,54,21.70
2011,08,22,03,55,21.70
2011,08,22,03,56,21.70
2011,08,22,03,57,21.70
2011,08,22,03,58,21.70
2011,08,22,03,59,21.70
2011,08,22,04,00,21.70
2011,08,22,04,01,21.70
2011,08,22,04,02,21.70
2011,08,22,04,03,21.70
2011,08,22,04,04,21.70
2011,08,22,04,05,21.70
2011,08,22,04,06,21.70
2011,08,22,04,07,21.70
2011,08,22,04,08,21.70
2011,08,22,04,09,21.70
2011,08,22,04,10,21.70
2011,08,22,04,11,21.60
2011,08,22,04,12,21.60
2011,08,22,04,13,21.60
2011,08,22,04,14,21.50
2011,08,22,04,15,21.50
2011,08,22,04,16,21.40
2011,08,22,04,17,21.40
2011,08,22,04,18,21.40
2011,08,22,04,19,21.30
2011,08,22,04,20,21.30
2011,08,22,04,21,21.30
2011,08,22,04,22,21.20
2011,08,22,04,23,21.20
2011,08,22,04,24,21.20
2011,08,22,04,25,21.20
2011,08,22,04,26,21.20
2011,08,22,04,27,21.20
2011,08,22,04,28,21.20
2011,08,22,04,29,21.20
2011,08,22,04,30,21.20
2011,08,22,04,31,21.20
2011,08,22,04,32,21.30
2011,08,22,04,33,21.30
2011,08,22,04,34,21.30
2011,08,22,04,35,21.30
2011,08,22,04,36,21.30
2011,08,22,04,37,21.30
2011,08,22,04,38,21.30
2011,08,22,04,39,21.30
2011,08,22,04,40,21.30
2011,08,22,04,41,21.30
2011,08,22,04,42,21.30
2011,08,22,04,43,21.30
2011,08,22,04,44,21.30
2011,08,22,04,45,21.20
2011,08,22,04,46,21.20
2011,08,22,04,47,21.20
2011,08,22,04,48,21.20
2011,08,22,04,49,21.20
2011,08,22,04,50,21.10
2011,08,22,04,51,21.10
2011,08,22,04,52,21.10
2011,08,22,04,53,21.10
2011,08,22,04,54,21.10
2011,08,22,04,55,21.10
2011,08,22,04,56,21.10
2011,08,22,04,57,21.10
2011,08,22,04,58,21.10
2011,08,22,04,59,21.10
2011,08,22,05,00,21.00
2011,08,22,05,01,21.00
2011,08,22,05,02,21.00
2011,08,22,05,03,21.00
2011,08,22,05,04,21.00
2011,08,22,05,05,21.00
2011,08,22,05,06,21.00
2011,08,22,05,07,21.00
2011,08,22,05,08,21.00
2011,08,22,05,09,20.90
2011,08,22,05,10,20.90
2011,08,22,05,11,20.90
2011,08,22,05,12,20.90
2011,08,22,05,13,20.90
2011,08,22,05,14,20.80
2011,08,22,05,15,20.80
2011,08,22,05,16,20.80
2011,08,22,05,17,20.80
2011,08,22,05,18,20.80
2011,08,22,05,19,20.70
2011,08,22,05,20,20.70
2011,08,22,05,21,20.70
2011,08,22,05,22,20.60
2011,08,22,05,23,20.60
2011,08,22,05,24,20.60
2011,08,22,05,25,20.60
2011,08,22,05,26,20.50
2011,08,22,05,27,20.50
2011,08,22,05,28,20.50
2011,08,22,05,29,20.40
2011,08,22,05,30,20.40
2011,08,22,05,31,20.40
2011,08,22,05,32,20.40
2011,08,22,05,33,20.40
2011,08,22,05,34,20.30
2011,08,22,05,35,20.30
2011,08,22,05,36,20.30
2011,08,22,05,37,20.30
2011,08,22,05,38,20.20
2011,08,22,05,39,20.20
2011,08,22,05,40,20.10
2011,08,22,05,41,20.10
2011,08,22,05,42,20.10
2011,08,22,05,43,20.10
2011,08,22,05,44,20.00
2011,08,22,05,45,20.00
2011,08,22,05,46,19.90
2011,08,22,05,47,19.90
2011,08,22,05,48,19.90
2011,08,22,05,49,19.90
2011,08,22,05,50,19.80
2011,08,22,05,51,19.80
2011,08,22,05,52,19.80
2011,08,22,05,53,19.80
2011,08,22,05,54,19.80
2011,08,22,05,55,19.80
2011,08,22,05,56,19.80
2011,08,22,05,57,19.80
2011,08,22,05,58,19.70
2011,08,22,05,59,19.70
2011,08,22,06,00,19.70
2011,08,22,06,01,19.70
2011,08,22,06,02,19.70
2011,08,22,06,03,19.70
2011,08,22,06,04,19.70
2011,08,22,06,05,19.60
2011,08,22,06,06,19.60
2011,08,22,06,07,19.60
2011,08,22,06,08,19.50
2011,08,22,06,09,19.50
2011,08,22,06,10,19.50
2011,08,22,06,11,19.40
2011,08,22,06,12,19.40
2011,08,22,06,13,19.30
2011,08,22,06,14,19.30
2011,08,22,06,15,19.20
2011,08,22,06,16,19.20
2011,08,22,06,17,19.20
2011,08,22,06,18,19.10
2011,08,22,06,19,19.10
2011,08,22,06,20,19.10
2011,08,22,06,21,19.10
2011,08,22,06,22,19.00
2011,08,22,06,23,19.00
2011,08,22,06,24,19.00
2011,08,22,06,25,18.90
2011,08,22,06,26,18.90
2011,08,22,06,27,18.90
2011,08,22,06,28,18.90
2011,08,22,06,29,18.90
2011,08,22,06,30,18.90
2011,08,22,06,31,18.90
2011,08,22,06,32,18.90
2011,08,22,06,33,18.90
2011,08,22,06,34,18.90
2011,08,22,06,35,18.80
2011,08,22,06,36,18.80
2011,08,22,06,37,18.80
2011,08,22,06,38,18.80
2011,08,22,06,39,18.80
2011,08,22,06,40,18.80
2011,08,22,06,41,18.80
2011,08,22,06,42,18.80
2011,08,22,06,43,18.80
2011,08,22,06,44,18.80
2011,08,22,06,45,18.70
2011,08,22,06,46,18.70
2011,08,22,06,47,18.70
2011,08,22,06,48,18.70
2011,08,22,06,49,18.70
2011,08,22,06,50,18.60
2011,08,22,06,51,18.60
2011,08,22,06,52,18.60
2011,08,22,06,53,18.60
2011,08,22,06,54,18.50
2011,08,22,06,55,18.50
2011,08,22,06,56,18.50
2011,08,22,06,57,18.40
2011,08,22,06,58,18.40
2011,08,22,06,59,18.40
2011,08,22,07,00,18.40
2011,08,22,07,01,18.40
2011,08,22,07,02,18.30
2011,08,22,07,03,18.30
2011,08,22,07,04,18.30
2011,08,22,07,05,18.30
2011,08,22,07,06,18.20
2011,08,22,07,07,18.20
2011,08,22,07,08,18.20
2011,08,22,07,09,18.20
2011,08,22,07,10,18.20
2011,08,22,07,11,18.20
2011,08,22,07,12,18.20
2011,08,22,07,13,18.20
2011,08,22,07,14,18.20
2011,08,22,07,15,18.20
2011,08,22,07,16,18.20
2011,08,22,07,17,18.20
2011,08,22,07,18,18.20
2011,08,22,07,19,18.20
2011,08,22,07,20,18.20
2011,08,22,07,21,18.20
2011,08,22,07,22,18.20
2011,08,22,07,23,18.20
2011,08,22,07,24,18.30
2011,08,22,07,25,18.30
2011,08,22,07,26,18.30
2011,08,22,07,27,18.30
2011,08,22,07,28,18.30
2011,08,22,07,29,18.30
2011,08,22,07,30,18.30
2011,08,22,07,31,18.30
2011,08,22,07,32,18.30
2011,08,22,07,33,18.30
2011,08,22,07,34,18.30
2011,08,22,07,35,18.30
2011,08,22,07,36,18.30
2011,08,22,07,37,18.30
2011,08,22,07,38,18.40
2011,08,22,07,39,18.40
2011,08,22,07,40,18.40
2011,08,22,07,41,18.40
2011,08,22,07,42,18.40
2011,08,22,07,43,18.40
2011,08,22,07,44,18.40
2011,08,22,07,45,18.40
2011,08,22,07,46,18.40
2011,08,22,07,47,18.40
2011,08,22,07,48,18.40
2011,08,22,07,49,18.40
2011,08,22,07,50,18.40
2011,08,22,07,51,18.40
2011,08,22,07,52,18.40
2011,08,22,07,53,18.40
2011,08,22,07,54,18.40
2011,08,22,07,55,18.50
2011,08,22,07,56,18.50
2011,08,22,07,57,18.50
2011,08,22,07,58,18.50
2011,08,22,07,59,18.50
2011,08,22,08,00,18.50
2011,08,22,08,01,18.50
2011,08,22,08,02,18.50
2011,08,22,08,03,18.40
2011,08,22,08,04,18.40
2011,08,22,08,05,18.40
2011,08,22,08,06,18.40
2011,08,22,08,07,18.40
2011,08,22,08,08,18.30
2011,08,22,08,09,18.30
2011,08,22,08,10,18.30
2011,08,22,08,11,18.30
2011,08,22,08,12,18.20
2011,08,22,08,13,18.20
2011,08,22,08,14,18.20
2011,08,22,08,15,18.20
2011,08,22,08,16,18.10
2011,08,22,08,17,18.10
2011,08,22,08,18,18.10
2011,08,22,08,19,18.10
2011,08,22,08,20,18.10
2011,08,22,08,21,18.00
2011,08,22,08,22,18.00
2011,08,22,08,23,18.00
2011,08,22,08,24,18.00
2011,08,22,08,25,17.90
2011,08,22,08,26,17.90
2011,08,22,08,27,17.90
2011,08,22,08,28,17.90
2011,08,22,08,29,17.90
2011,08,22,08,30,17.90
2011,08,22,08,31,17.90
2011,08,22,08,32,17.90
2011,08,22,08,33,17.80
2011,08,22,08,34,17.80
2011,08,22,08,35,17.80
2011,08,22,08,36,17.80
2011,08,22,08,37,17.80
2011,08,22,08,38,17.80
2011,08,22,08,39,17.80
2011,08,22,08,40,17.70
2011,08,22,08,41,17.70
2011,08,22,08,42,17.70
2011,08,22,08,43,17.70
2011,08,22,08,44,17.70
2011,08,22,08,45,17.60
2011,08,22,08,46,17.60
2011,08,22,08,47,17.60
2011,08,22,08,48,17.60
2011,08,22,08,49,17.50
2011,08,22,08,50,17.50
2011,08,22,08,51,17.50
2011,08,22,08,52,17.40
2011,08,22,08,53,17.40
2011,08,22,08,54,17.40
2011,08,22,08,55,17.30
2011,08,22,08,56,17.30
2011,08,22,08,57,17.30
2011,08,22,08,58,17.30
2011,08,22,08,59,17.30
2011,08,22,09,00,17.20
2011,08,22,09,01,17.20
2011,08,22,09,02,17.20
2011,08,22,09,03,17.20
2011,08,22,09,04,17.20
2011,08,22,09,05,17.10
2011,08,22,09,06,17.10
2011,08,22,09,07,17.10
2011,08,22,09,08,17.10
2011,08,22,09,09,17.10
2011,08,22,09,10,17.10
2011,08,22,09,11,17.10
2011,08,22,09,12,17.10
2011,08,22,09,13,17.10
2011,08,22,09,14,17.10
2011,08,22,09,15,17.00
2011,08,22,09,16,17.00
2011,08,22,09,17,17.00
2011,08,22,09,18,17.00
2011,08,22,09,19,17.00
2011,08,22,09,20,17.00
2011,08,22,09,21,17.00
2011,08,22,09,22,17.00
2011,08,22,09,23,17.00
2011,08,22,09,24,17.00
2011,08,22,09,25,16.90
2011,08,22,09,26,16.90
2011,08,22,09,27,16.90
2011,08,22,09,28,16.90
2011,08,22,09,29,16.90
2011,08,22,09,30,16.90
2011,08,22,09,31,16.90
2011,08,22,09,32,16.90
2011,08,22,09,33,16.90
2011,08,22,09,34,16.90
2011,08,22,09,35,16.80
2011,08,22,09,36,16.80
2011,08,22,09,37,16.80
2011,08,22,09,38,16.80
2011,08,22,09,39,16.80
2011,08,22,09,40,16.80
2011,08,22,09,41,16.80
2011,08,22,09,42,16.80
2011,08,22,09,43,16.80
2011,08,22,09,44,16.80
2011,08,22,09,45,16.80
2011,08,22,09,46,16.80
2011,08,22,09,47,16.80
2011,08,22,09,48,16.80
2011,08,22,09,49,16.80
2011,08,22,09,50,16.80
2011,08,22,09,51,16.80
2011,08,22,09,52,16.80
2011,08,22,09,53,16.80
2011,08,22,09,54,16.80
2011,08,22,09,55,16.80
2011,08,22,09,56,16.80
2011,08,22,09,57,16.80
2011,08,22,09,58,16.80
2011,08,22,09,59,16.80
2011,08,22,10,00,16.80
2011,08,22,10,01,16.80
2011,08,22,10,02,16.80
2011,08,22,10,03,16.80
2011,08,22,10,04,16.80
2011,08,22,10,05,16.80
2011,08,22,10,06,16.80
2011,08,22,10,07,16.80
2011,08,22,10,08,16.80
2011,08,22,10,09,16.80
2011,08,22,10,10,16.80
2011,08,22,10,11,16.80
2011,08,22,10,12,16.80
2011,08,22,10,13,16.80
2011,08,22,10,14,16.80
2011,08,22,10,15,16.80
2011,08,22,10,16,16.80
2011,08,22,10,17,16.80
2011,08,22,10,18,16.80
2011,08,22,10,19,16.80
2011,08,22,10,20,16.80
2011,08,22,10,21,16.80
2011,08,22,10,22,16.80
2011,08,22,10,23,16.80
2011,08,22,10,24,16.80
2011,08,22,10,25,16.80
2011,08,22,10,26,16.80
2011,08,22,10,27,16.80
2011,08,22,10,28,16.80
2011,08,22,10,29,16.80
2011,08,22,10,30,16.80
2011,08,22,10,31,16.80
2011,08,22,10,32,16.80
2011,08,22,10,33,16.80
2011,08,22,10,34,16.80
2011,08,22,10,35,16.80
2011,08,22,10,36,16.80
2011,08,22,10,37,16.80
2011,08,22,10,38,16.80
2011,08,22,10,39,16.80
2011,08,22,10,40,16.80
2011,08,22,10,41,16.80
2011,08,22,10,42,16.80
2011,08,22,10,43,16.80
2011,08,22,10,44,16.80
2011,08,22,10,45,16.80
2011,08,22,10,46,16.80
2011,08,22,10,47,16.80
2011,08,22,10,48,16.80
2011,08,22,10,49,16.80
2011,08,22,10,50,16.80
2011,08,22,10,51,16.80
2011,08,22,10,52,16.80
2011,08,22,10,53,16.80
2011,08,22,10,54,16.80
2011,08,22,10,55,16.80
2011,08,22,10,56,16.80
2011,08,22,10,57,16.80
2011,08,22,10,58,16.80
2011,08,22,10,59,16.80
2011,08,22,11,00,16.90
2011,08,22,11,01,16.90
2011,08,22,11,02,16.90
2011,08,22,11,03,16.90
2011,08,22,11,04,16.90
2011,08,22,11,05,16.90
2011,08,22,11,06,16.90
2011,08,22,11,07,16.90
2011,08,22,11,08,16.90
2011,08,22,11,09,16.90
2011,08,22,11,10,16.90
2011,08,22,11,11,16.90
2011,08,22,11,12,16.90
2011,08,22,11,13,16.90
2011,08,22,11,14,16.90
2011,08,22,11,15,16.90
2011,08,22,11,16,16.90
2011,08,22,11,17,16.90
2011,08,22,11,18,16.90
2011,08,22,11,19,17.00
2011,08,22,11,20,17.00
2011,08,22,11,21,17.00
2011,08,22,11,22,17.00
2011,08,22,11,23,17.10
2011,08,22,11,24,17.10
2011,08,22,11,25,17.10
2011,08,22,11,26,17.10
2011,08,22,11,27,17.10
2011,08,22,11,28,17.10
2011,08,22,11,29,17.10
2011,08,22,11,30,17.10
2011,08,22,11,31,17.10
2011,08,22,11,32,17.10
2011,08,22,11,33,17.10
2011,08,22,11,34,17.10
2011,08,22,11,35,17.10
2011,08,22,11,36,17.20
2011,08,22,11,37,17.20
2011,08,22,11,38,17.20
2011,08,22,11,39,17.20
2011,08,22,11,40,17.20
2011,08,22,11,41,17.20
2011,08,22,11,42,17.30
2011,08,22,11,43,17.30
2011,08,22,11,44,17.30
2011,08,22,11,45,17.30
2011,08,22,11,46,17.30
2011,08,22,11,47,17.30
2011,08,22,11,48,17.30
2011,08,22,11,49,17.40
2011,08,22,11,50,17.40
2011,08,22,11,51,17.40
2011,08,22,11,52,17.50
2011,08,22,11,53,17.50
2011,08,22,11,54,17.50
2011,08,22,11,55,17.50
2011,08,22,11,56,17.50
2011,08,22,11,57,17.50
2011,08,22,11,58,17.50
2011,08,22,11,59,17.60
2011,08,22,12,00,17.60
2011,08,22,12,01,17.60
2011,08,22,12,02,17.60
2011,08,22,12,03,17.60
2011,08,22,12,04,17.60
2011,08,22,12,05,17.60
2011,08,22,12,06,17.60
2011,08,22,12,07,17.60
2011,08,22,12,08,17.60
2011,08,22,12,09,17.70
2011,08,22,12,10,17.70
2011,08,22,12,11,17.70
2011,08,22,12,12,17.70
2011,08,22,12,13,17.70
2011,08,22,12,14,17.70
2011,08,22,12,15,17.70
2011,08,22,12,16,17.70
2011,08,22,12,17,17.70
2011,08,22,12,18,17.70
2011,08,22,12,19,17.70
2011,08,22,12,20,17.70
2011,08,22,12,21,17.70
2011,08,22,12,22,17.70
2011,08,22,12,23,17.70
2011,08,22,12,24,17.70
2011,08,22,12,25,17.70
2011,08,22,12,26,17.70
2011,08,22,12,27,17.70
2011,08,22,12,28,17.70
2011,08,22,12,29,17.70
2011,08,22,12,30,17.70
2011,08,22,12,31,17.70
2011,08,22,12,32,17.70
2011,08,22,12,33,17.70
2011,08,22,12,34,17.70
2011,08,22,12,35,17.70
2011,08,22,12,36,17.70
2011,08,22,12,37,17.70
2011,08,22,12,38,17.60
2011,08,22,12,39,17.60
2011,08,22,12,40,17.60
2011,08,22,12,41,17.60
2011,08,22,12,42,17.60
2011,08,22,12,43,17.60
2011,08,22,12,44,17.60
2011,08,22,12,45,17.60
2011,08,22,12,46,17.60
2011,08,22,12,47,17.60
2011,08,22,12,48,17.60
2011,08,22,12,49,17.60
2011,08,22,12,50,17.60
2011,08,22,12,51,17.60
2011,08,22,12,52,17.60
2011,08,22,12,53,17.60
2011,08,22,12,54,17.60
2011,08,22,12,55,17.60
2011,08,22,12,56,17.60
2011,08,22,12,57,17.60
2011,08,22,12,58,17.60
2011,08,22,12,59,17.60
2011,08,22,13,00,17.60
2011,08,22,13,01,17.70
2011,08,22,13,02,17.70
2011,08,22,13,03,17.70
2011,08,22,13,04,17.70
2011,08,22,13,05,17.80
2011,08,22,13,06,17.80
2011,08,22,13,07,17.80
2011,08,22,13,08,17.80
2011,08,22,13,09,17.80
2011,08,22,13,10,17.80
2011,08,22,13,11,17.80
2011,08,22,13,12,17.80
2011,08,22,13,13,17.80
2011,08,22,13,14,17.80
2011,08,22,13,15,17.80
2011,08,22,13,16,17.80
2011,08,22,13,17,17.80
2011,08,22,13,18,17.80
2011,08,22,13,19,17.80
2011,08,22,13,20,17.80
2011,08,22,13,21,17.80
2011,08,22,13,22,17.80
2011,08,22,13,23,17.80
2011,08,22,13,24,17.80
2011,08,22,13,25,17.80
2011,08,22,13,26,17.80
2011,08,22,13,27,17.80
2011,08,22,13,28,17.80
2011,08,22,13,29,17.80
2011,08,22,13,30,17.80
2011,08,22,13,31,17.80
2011,08,22,13,32,17.80
2011,08,22,13,33,17.80
2011,08,22,13,34,17.80
2011,08,22,13,35,17.80
2011,08,22,13,36,17.80
2011,08,22,13,37,17.80
2011,08,22,13,38,17.80
2011,08,22,13,39,17.90
2011,08,22,13,40,17.90
2011,08,22,13,41,17.90
2011,08,22,13,42,17.90
2011,08,22,13,43,17.90
2011,08,22,13,44,17.90
2011,08,22,13,45,17.90
2011,08,22,13,46,17.90
2011,08,22,13,47,17.90
2011,08,22,13,48,17.90
2011,08,22,13,49,17.90
2011,08,22,13,50,17.90
2011,08,22,13,51,17.90
2011,08,22,13,52,17.90
2011,08,22,13,53,17.90
2011,08,22,13,54,17.90
2011,08,22,13,55,17.90
2011,08,22,13,56,17.90
2011,08,22,13,57,17.90
2011,08,22,13,58,17.90
2011,08,22,13,59,17.90
2011,08,22,14,00,17.90
2011,08,22,14,01,17.90
2011,08,22,14,02,17.90
2011,08,22,14,03,17.90
2011,08,22,14,04,17.90
2011,08,22,14,05,17.90
2011,08,22,14,06,17.90
2011,08,22,14,07,17.90
2011,08,22,14,08,17.90
2011,08,22,14,09,18.00
2011,08,22,14,10,18.00
2011,08,22,14,11,18.00
2011,08,22,14,12,18.00
2011,08,22,14,13,18.10
2011,08,22,14,14,18.10
2011,08,22,14,15,18.10
2011,08,22,14,16,18.10
2011,08,22,14,17,18.10
2011,08,22,14,18,18.20
2011,08,22,14,19,18.20
2011,08,22,14,20,18.20
2011,08,22,14,21,18.20
2011,08,22,14,22,18.30
2011,08,22,14,23,18.30
2011,08,22,14,24,18.30
2011,08,22,14,25,18.30
2011,08,22,14,26,18.40
2011,08,22,14,27,18.40
2011,08,22,14,28,18.40
2011,08,22,14,29,18.40
2011,08,22,14,30,18.40
2011,08,22,14,31,18.40
2011,08,22,14,32,18.30
2011,08,22,14,33,18.30
2011,08,22,14,34,18.30
2011,08,22,14,35,18.30
2011,08,22,14,36,18.30
2011,08,22,14,37,18.20
2011,08,22,14,38,18.20
2011,08,22,14,39,18.10
2011,08,22,14,40,18.10
2011,08,22,14,41,18.10
2011,08,22,14,42,18.10
2011,08,22,14,43,18.10
2011,08,22,14,44,18.10
2011,08,22,14,45,18.00
2011,08,22,14,46,18.00
2011,08,22,14,47,18.00
2011,08,22,14,48,18.00
2011,08,22,14,49,18.00
2011,08,22,14,50,18.00
2011,08,22,14,51,18.00
2011,08,22,14,52,17.90
2011,08,22,14,53,17.90
2011,08,22,14,54,17.90
2011,08,22,14,55,17.90
2011,08,22,14,56,17.90
2011,08,22,14,57,17.90
2011,08,22,14,58,17.80
2011,08,22,14,59,17.80
2011,08,22,15,00,17.70
2011,08,22,15,01,17.70
2011,08,22,15,02,17.70
2011,08,22,15,03,17.60
2011,08,22,15,04,17.60
2011,08,22,15,05,17.60
2011,08,22,15,06,17.60
2011,08,22,15,07,17.60
2011,08,22,15,08,17.60
2011,08,22,15,09,17.50
2011,08,22,15,10,17.50
2011,08,22,15,11,17.50
2011,08,22,15,12,17.50
2011,08,22,15,13,17.50
2011,08,22,15,14,17.50
2011,08,22,15,15,17.50
2011,08,22,15,16,17.60
2011,08,22,15,17,17.60
2011,08,22,15,18,17.60
2011,08,22,15,19,17.60
2011,08,22,15,20,17.60
2011,08,22,15,21,17.60
2011,08,22,15,22,17.60
2011,08,22,15,23,17.60
2011,08,22,15,24,17.60
2011,08,22,15,25,17.60
2011,08,22,15,26,17.60
2011,08,22,15,27,17.60
2011,08,22,15,28,17.60
2011,08,22,15,29,17.60
2011,08,22,15,30,17.60
2011,08,22,15,31,17.60
2011,08,22,15,32,17.70
2011,08,22,15,33,17.70
2011,08,22,15,34,17.70
2011,08,22,15,35,17.70
2011,08,22,15,36,17.70
2011,08,22,15,37,17.70
2011,08,22,15,38,17.70
2011,08,22,15,39,17.70
2011,08,22,15,40,17.70
2011,08,22,15,41,17.70
2011,08,22,15,42,17.70
2011,08,22,15,43,17.70
2011,08,22,15,44,17.80
2011,08,22,15,45,17.80
2011,08,22,15,46,17.80
2011,08,22,15,47,17.80
2011,08,22,15,48,17.80
2011,08,22,15,49,17.90
2011,08,22,15,50,17.90
2011,08,22,15,51,17.90
2011,08,22,15,52,17.90
2011,08,22,15,53,17.90
2011,08,22,15,54,17.90
2011,08,22,15,55,17.90
2011,08,22,15,56,17.90
2011,08,22,15,57,17.90
2011,08,22,15,58,18.00
2011,08,22,15,59,18.00
2011,08,22,16,00,18.00
2011,08,22,16,01,18.00
2011,08,22,16,02,18.00
2011,08,22,16,03,18.00
2011,08,22,16,04,18.00
2011,08,22,16,05,18.00
2011,08,22,16,06,18.00
2011,08,22,16,07,18.00
2011,08,22,16,08,18.00
2011,08,22,16,09,18.00
2011,08,22,16,10,18.00
2011,08,22,16,11,18.00
2011,08,22,16,12,17.90
2011,08,22,16,13,17.90
2011,08,22,16,14,17.90
2011,08,22,16,15,17.90
2011,08,22,16,16,17.90
2011,08,22,16,17,17.90
2011,08,22,16,18,17.80
2011,08,22,16,19,17.80
2011,08,22,16,20,17.80
2011,08,22,16,21,17.80
2011,08,22,16,22,17.80
2011,08,22,16,23,17.80
2011,08,22,16,24,17.80
2011,08,22,16,25,17.80
2011,08,22,16,26,17.80
2011,08,22,16,27,17.80
2011,08,22,16,28,17.80
2011,08,22,16,29,17.80
2011,08,22,16,30,17.80
2011,08,22,16,31,17.80
2011,08,22,16,32,17.80
2011,08,22,16,33,17.80
2011,08,22,16,34,17.80
2011,08,22,16,35,17.80
2011,08,22,16,36,17.80
2011,08,22,16,37,17.80
2011,08,22,16,38,17.80
2011,08,22,16,39,17.90
2011,08,22,16,40,17.90
2011,08,22,16,41,17.90
2011,08,22,16,42,17.90
2011,08,22,16,43,18.00
2011,08,22,16,44,18.00
2011,08,22,16,45,18.10
2011,08,22,16,46,18.10
2011,08,22,16,47,18.10
2011,08,22,16,48,18.10
2011,08,22,16,49,18.10
2011,08,22,16,50,18.20
2011,08,22,16,51,18.20
2011,08,22,16,52,18.20
2011,08,22,16,53,18.20
2011,08,22,16,54,18.20
2011,08,22,16,55,18.30
2011,08,22,16,56,18.30
2011,08,22,16,57,18.30
2011,08,22,16,58,18.30
2011,08,22,16,59,18.30
2011,08,22,17,00,18.30
2011,08,22,17,01,18.30
2011,08,22,17,02,18.30
2011,08,22,17,03,18.20
2011,08,22,17,04,18.20
2011,08,22,17,05,18.20
2011,08,22,17,06,18.20
2011,08,22,17,07,18.20
2011,08,22,17,08,18.10
2011,08,22,17,09,18.10
2011,08,22,17,10,18.10
2011,08,22,17,11,18.00
2011,08,22,17,12,18.00
2011,08,22,17,13,17.90
2011,08,22,17,14,17.90
2011,08,22,17,15,17.90
2011,08,22,17,16,17.90
2011,08,22,17,17,17.90
2011,08,22,17,18,17.90
2011,08,22,17,19,17.90